Hallo Guest
Login
Close
Registration
Close
Sonnenertrag beschäftigt sich in erster Linie mit Photovoltaik und nachhaltigen Energien. Wir unterhalten die Photovoltaik Datenbank in der unsere Nutzer ihre Erträge und Anlagen untereinander vergleiche können. Neu ist der Datenimport über Solarlog und Sunnyreport.
Announcement Announcement
Donate now

Hier sehen Sie die aktuellen Spenden. Wir freuen uns über jeden Beitrag. Nur gemeinsam sind wir stark!

Alle neuen Spenden hier.

Our top sponsors

Most recent donations

All facilities

All facilities

With "all facilities" can you see all photovoltaic facilities that have entered already revenues in the current month. Also other months can be chosen manually. With a click on a column title can you sort and compare the photovoltaic facilities.

 

Duration: 03.2021 until 03.2021

Current sorting by: upwards

No. Revenue
in kWh
Efficiency
in kWh/kWp
Parts Postal Code Country start Update Name
-49 5,00 0,53 1 92253 Germany 2008 01.03 10:55 demleitner
-48 1,00 0,22 1 59329 Germany 2005 01.03. 20:17 Hartmann 2
-47 226,00 93,78 1 58332 Germany 2009 01.04 00:09 Optikus
-46 437,84 95,18 1 12355 Germany 2010 01.04 00:13 Hollystrom
-45 402,47 69,39 1 46514 Germany 2019 01.04 03:01 SchSchSolarDach
-44 231,54 67,11 1 6712 ET Netherlands 2018 01.04 03:02 Zoninede
-43 377,96 100,52 1 69168 Germany 2009 01.04 03:06 saschah
-42 22694,50 15,39 1 94356 Germany 2008 01.04 03:09 PV-Anlage 1,4mW
-41 448,50 101,93 1 65428 Germany 2008 01.04 06:38 Sundown
-40 950,00 101,06 1 34431 Germany 2006 01.04 06:39 solarhans
-39 802,00 95,48 1 55469 Germany 2008 01.04 06:56 sundancekid
-38 606,65 79,72 1 24941 Germany 2011 01.04 07:07 Mimi77
-37 1645,58 105,08 1 96253 Germany 2009 01.04 07:19 solman1
-36 615,70 108,59 1 79341 Germany 2009 01.04 07:30 rolkes-solar
-35 1521,64 85,39 1 93164 Germany 2020 01.04 08:02 PK_PV
-34 1019,90 107,81 1 77866 Germany 2008 01.04 08:08 alfatier
-33 945,00 112,50 1 87719 Germany 2011 01.04 08:08 Eddi
-32 516,00 89,90 1 59302 Germany 2009 01.04 08:08 summerby
-31 1167,00 101,39 1 96465 Germany 2012 01.04 08:33 Susnor
-30 5002,80 115,01 1 92444 Germany 2009 01.04 08:42 Drehscheune
-29 1026,40 106,69 1 50126 Germany 2010 01.04 08:47 Engelmann
-28 1322,12 111,29 1 97453 Germany 2012 01.04 09:25 Weinberg
-27 856,36 91,49 1 53894 Germany 2011 01.04 09:32 eumelchen
-26 1590,00 110,42 1 72519 Germany 2006 01.04 09:57 klosssie
-25 1876,00 111,67 1 35080 Germany 2012 01.04 10:03 CharlyH
-24 462,07 93,54 1 30539 Germany 2011 01.04 10:16 Feldbusch
-23 1241,56 71,03 1 32369 Germany 2010 01.04 10:17 sunseeker
-22 88,00 85,85 1 4811 Netherlands 2009 01.04 10:19 Vierwinden
-21 359,30 125,63 1 87027 Italy 2010 01.04 10:37 Pasquale Gullo
-20 676,70 88,46 1 94536 Germany 2006 01.04 10:41 Michael
-19 722,30 105,45 1 53937 Germany 2010 01.04 10:43 mmhartmann
-18 363,60 124,95 1 81050 Italy 2017 01.04 11:51 Anto
-17 418,00 98,82 1 4630 Belgium 2011 01.04 12:33 maisonphoto
-16 555,10 99,30 1 66424 Germany 2008 01.04 12:49 tonimahoni
-15 225,12 83,38 1 2678TE Netherlands 2013 01.04 12:55 Rieken Solar
-14 1276,85 107,07 1 89081 Germany 2008 01.04 13:07 Lehr-RB
-13 414,58 98,71 1 86853 Germany 2000 01.04 13:12 highvoltage
-12 354,74 80,44 1 25436 Germany 2008 01.04 14:01 ansche
-11 801,00 98,89 1 45768 Germany 2008 01.04 14:02 Alpenradler
-10 629,49 96,70 3 94086 Germany 2009 01.04 14:19 Karpfham 1
-9 335,15 87,28 1 59302 Germany 2011 01.04 14:21 Lutter
-8 187,08 98,98 1 94086 Germany 2016 01.04 14:23 Karpfham 2
-7 792,29 117,38 1 86513 Germany 2008 01.04 14:25 gpv
-6 493,00 86,49 1 01689 Germany 2011 01.04 14:33 sonne@33b
-5 961,00 48,05 1 56295 Germany 2021 01.04 14:59 torfmoorkraftwerk4
-4 266,30 92,47 1 44534 Germany 2010 01.04 15:02 mh2009
-3 1144,00 99,05 1 57577 Germany 2008 01.04 15:38 Aufdachanlage, 12 KWp, 57577 Hamm / Sieg
-2 451,28 101,64 1 9220 Belgium 2010 01.04 15:49 Luc
-1 1408,00 77,49 1 94094 Germany 2009 01.04 15:59 Energetes
0 923,03 93,42 1 48683 Germany 2011 01.04 16:03 solar27